Date,TemperatureHighF,TemperatureAvgF,TemperatureLowF,DewpointHighF,DewpointAvgF,DewpointLowF,HumidityHigh,HumidityAvg,HumidityLow,PressureMaxIn,PressureMinIn,WindSpeedMaxMPH,WindSpeedAvgMPH,GustSpeedMaxMPH,PrecipitationSumIn
2013-1-1,64.0,62.6,61.0,64.0,48.4,22.0,100,68,21,29.88,29.77,51,29,0,0.00
2013-1-2,69.0,65.0,63.0,68.0,58.4,30.0,100,85,24,29.88,29.77,47,34,0,0.00
2013-1-3,68.0,65.8,63.0,68.0,61.3,48.0,100,88,52,29.88,29.74,44,26,0,0.00
2013-1-4,68.0,61.0,60.0,68.0,43.0,33.0,100,53,35,29.85,29.80,26,20,0,0.00
2013-1-8,55.0,55.0,55.0,55.0,55.0,55.0,100,100,100,29.32,29.32,28,28,0,0.00
2013-1-9,73.0,61.1,54.0,73.0,61.1,54.0,100,100,100,29.32,29.03,36,26,0,0.00
2013-1-10,57.0,55.6,55.0,57.0,55.6,55.0,100,100,100,29.77,29.09,52,29,0,0.00
2013-1-11,61.0,59.2,55.0,61.0,59.2,55.0,100,100,100,29.80,29.56,53,30,0,0.00
2013-1-12,61.0,58.5,55.0,61.0,58.5,55.0,100,100,100,29.65,29.56,53,23,0,0.00
2013-1-13,61.0,58.7,56.0,61.0,58.7,56.0,100,100,100,29.91,29.65,54,34,0,0.00
2013-1-14,65.0,60.9,58.0,65.0,60.9,58.0,100,100,100,30.09,29.85,36,27,0,0.00
2013-1-15,66.0,66.0,66.0,66.0,66.0,66.0,100,100,100,30.09,30.06,21,20,0,0.00
2013-1-16,66.0,66.0,66.0,66.0,66.0,66.0,100,100,100,30.09,30.09,3,3,0,0.00
2013-1-17,74.0,72.9,72.0,74.0,72.9,72.0,100,100,100,29.88,29.65,25,12,0,0.00
2013-1-18,75.0,69.3,60.0,75.0,69.3,60.0,100,100,100,29.88,29.26,38,29,0,0.00
2013-1-19,70.0,67.3,63.0,70.0,67.3,63.0,100,100,100,30.03,29.65,22,20,0,0.00
2013-1-20,66.0,63.3,59.0,66.0,63.3,58.0,100,100,100,30.06,29.88,23,14,0,0.00
2013-1-21,62.0,59.9,58.0,62.0,59.9,58.0,100,100,100,30.09,29.97,22,12,0,0.00
2013-1-22,61.0,59.0,57.0,61.0,59.0,57.0,100,100,100,30.09,29.88,14,8,0,0.00
2013-1-23,64.0,58.3,55.0,64.0,58.3,55.0,100,100,100,30.00,29.85,29,11,0,0.00
2013-1-24,73.0,58.6,55.0,73.0,58.6,55.0,100,100,100,30.39,29.85,39,24,0,0.00
2013-1-25,61.0,55.0,56.0,61.0,48.6,-99.9,100,94,100,30.45,30.39,31,20,0,0.00
2013-1-26,68.0,61.4,59.0,68.0,58.0,-99.9,100,97,100,30.45,30.33,34,21,0,0.00
2013-1-27,73.0,58.3,66.0,73.0,44.9,-99.9,100,87,100,30.42,30.33,40,19,0,0.00
2013-1-28,72.0,48.1,64.0,72.0,19.6,-99.9,100,71,100,30.42,30.24,31,24,0,0.00
2013-1-29,72.0,38.4,66.0,72.0,-5.4,-99.9,100,56,100,30.27,30.15,31,23,0,0.00
2013-1-30,108.0,49.5,62.0,70.0,12.0,-99.9,100,59,21,30.24,30.12,33,22,0,0.00
2013-1-31,81.0,64.7,63.0,81.0,58.3,-99.9,100,94,100,30.12,29.97,26,18,0,0.00
2013-2-1,70.0,61.9,56.0,70.0,61.9,56.0,100,100,100,29.97,29.88,24,10,0,0.00
2013-2-2,68.0,45.9,61.0,68.0,18.3,-99.9,100,72,100,29.91,29.71,38,22,0,0.00
2013-2-3,70.0,61.5,63.0,70.0,54.9,-99.9,100,93,100,30.03,29.68,37,21,0,0.00
2013-2-4,81.0,55.2,63.0,81.0,35.1,-99.9,100,80,100,30.18,29.74,37,25,0,0.00
2013-2-5,79.0,61.3,68.0,79.0,46.4,-99.9,100,85,100,30.15,30.06,20,16,0,0.00
2013-2-6,81.0,61.9,68.0,76.0,39.4,-99.9,100,80,84,30.12,29.97,32,11,0,0.00
2013-2-7,73.0,68.8,61.0,73.0,24.9,-99.9,100,73,100,30.03,29.68,45,30,0,0.00
2013-2-8,75.0,60.5,61.0,75.0,24.9,-99.9,100,75,100,29.91,29.53,47,26,0,0.00
2013-2-9,66.0,58.5,59.0,66.0,9.7,-99.9,100,67,100,30.00,29.53,46,34,0,0.00
2013-2-10,69.0,53.5,61.0,69.0,16.7,-99.9,100,71,100,30.09,29.91,26,23,0,0.00
2013-2-11,76.0,68.8,64.0,76.0,42.5,-99.9,100,84,100,30.15,30.03,45,28,0,0.00
2013-2-12,76.0,70.8,66.0,76.0,34.2,-99.9,100,78,100,30.12,30.00,36,24,0,0.00
2013-2-13,79.0,66.4,66.0,79.0,60.3,-99.9,100,94,100,30.06,29.85,33,26,0,0.00
2013-2-14,78.0,63.5,69.0,78.0,52.1,-99.9,100,89,100,29.88,29.77,30,24,0,0.00
2013-2-15,77.0,65.1,70.0,77.0,56.3,-99.9,100,91,100,29.91,29.68,34,24,0,0.00
2013-2-16,85.0,69.9,70.0,85.0,61.8,-99.9,100,92,100,29.77,29.59,31,23,0,0.00
2013-2-17,90.0,75.0,75.0,90.0,63.6,-99.9,100,90,100,29.80,29.53,25,14,0,0.00
2013-2-18,93.0,87.2,84.0,90.0,66.1,-99.9,100,87,86,29.62,29.47,15,10,0,0.00
2013-2-19,88.0,71.1,82.0,88.0,26.5,-99.9,100,68,100,29.68,29.53,18,6,0,0.00
2013-2-20,82.0,79.0,75.0,82.0,9.9,-99.9,100,62,100,29.68,29.59,15,13,0,0.00
2013-2-21,81.0,68.8,75.0,79.0,-19.9,-99.9,100,45,100,29.71,29.62,26,18,0,0.00
2013-2-22,84.0,81.2,75.0,84.0,74.2,-99.9,100,96,100,29.71,29.53,38,28,0,0.00
2013-2-23,84.0,80.7,73.0,84.0,22.6,-99.9,100,68,100,29.74,29.56,43,20,0,0.00
2013-2-24,84.0,82.1,81.0,82.0,9.0,-99.9,100,60,100,29.80,29.59,25,12,0,0.00
2013-2-25,84.0,82.7,81.0,84.0,48.6,-99.9,100,81,100,29.74,29.56,24,12,0,0.00
2013-2-26,86.0,81.7,77.0,86.0,25.9,-99.9,100,69,100,29.80,29.50,29,15,0,0.00
2013-2-27,84.0,82.3,81.0,82.0,-48.6,-99.9,100,28,100,29.77,29.65,16,12,0,0.00
2013-2-28,86.0,76.2,75.0,86.0,28.5,-99.9,100,71,100,29.80,29.53,31,22,0,0.00
2013-3-1,82.0,79.4,77.0,82.0,24.9,-99.9,100,69,100,29.77,29.65,22,16,0,0.00
2013-3-2,81.0,76.3,70.0,81.0,12.2,-99.9,100,63,100,29.80,29.62,29,16,0,0.00
2013-3-3,81.0,73.9,70.0,81.0,24.4,-99.9,100,71,100,30.03,29.74,46,38,0,0.00
2013-3-4,81.0,74.5,70.0,81.0,59.4,-99.9,100,91,100,30.09,30.06,29,16,0,0.00
2013-3-5,82.0,75.8,72.0,82.0,-1.1,-99.9,100,56,100,30.12,30.03,28,14,0,0.00
2013-3-6,75.0,70.6,66.0,73.0,19.2,-99.9,100,70,100,30.09,29.88,31,17,0,0.00
2013-3-7,86.0,74.3,68.0,86.0,35.0,-99.9,100,77,100,29.94,29.85,28,15,0,0.00
2013-3-8,72.0,65.0,59.0,72.0,3.8,-99.9,100,62,100,30.15,29.97,25,16,0,0.00
2013-3-9,72.0,62.2,57.0,72.0,10.2,-99.9,100,68,100,30.18,30.09,25,16,0,0.00
2013-3-10,68.0,61.9,57.0,68.0,22.4,-99.9,100,76,100,30.18,29.97,37,19,0,0.00
2013-3-11,68.0,59.3,52.0,68.0,23.9,-99.9,100,77,100,30.24,29.97,36,24,0,0.00
2013-3-12,61.0,54.7,52.0,61.0,-38.5,-99.9,100,39,100,30.21,30.00,17,11,0,0.00
2013-3-13,66.0,59.5,55.0,66.0,-18.9,-99.9,100,50,100,30.00,29.91,23,14,0,0.00
2013-3-14,68.0,64.0,61.0,68.0,2.7,-99.9,100,62,100,30.03,29.91,21,13,0,0.00
2013-3-15,72.0,67.6,64.0,72.0,-8.3,-99.9,100,54,100,30.06,30.00,16,10,0,0.00
2013-3-16,75.0,68.6,66.0,70.0,8.6,-99.9,100,65,100,30.00,29.88,23,17,0,0.00
2013-3-17,77.0,69.1,66.0,77.0,20.0,-99.9,100,71,100,29.91,29.47,41,27,0,0.00
2013-3-18,79.0,69.5,63.0,72.0,12.1,-99.9,100,67,100,29.94,29.35,39,25,0,0.00
2013-3-19,66.0,57.5,54.0,66.0,-23.0,-99.9,100,49,100,30.03,29.50,40,30,0,0.00
2013-3-20,68.0,57.5,54.0,68.0,6.8,-99.9,100,67,100,30.27,30.03,24,14,0,0.00
2013-3-21,64.0,56.3,54.0,64.0,23.5,-99.9,100,79,100,30.33,30.27,101,24,0,0.00
2013-3-22,63.0,58.9,54.0,63.0,9.8,-99.9,100,69,100,30.33,30.18,48,27,0,0.00
2013-3-23,66.0,63.1,61.0,64.0,-5.3,-99.9,100,58,100,30.09,29.71,54,27,0,0.00
2013-3-24,68.0,64.6,63.0,68.0,4.9,-99.9,100,64,100,29.94,29.59,58,41,0,0.00
2013-3-25,66.0,62.9,59.0,66.0,-2.0,-99.9,100,60,100,30.03,29.88,29,16,0,0.00
2013-3-26,75.0,67.2,63.0,75.0,-13.1,-99.9,100,52,100,30.00,29.83,40,21,0,0.00
2013-3-27,75.0,73.4,72.0,75.0,-15.5,-99.9,100,48,100,29.97,29.91,34,26,0,0.00
2013-3-28,86.0,73.9,70.0,73.0,-30.5,-99.9,100,40,100,30.00,29.85,18,5,0,0.00
2013-3-29,82.0,75.1,70.0,79.0,10.2,-99.9,100,63,100,29.97,29.85,28,19,0,0.00
2013-3-30,84.0,78.0,75.0,84.0,22.0,-99.9,100,68,100,29.94,29.80,21,12,0,0.00
2013-3-31,82.0,78.0,73.0,82.0,-5.4,-99.9,100,53,100,29.88,29.80,16,11,0,0.00
2013-4-1,82.0,80.3,79.0,81.0,-4.8,-99.9,100,53,100,29.91,29.80,15,11,0,0.00
2013-4-2,81.0,78.5,77.0,81.0,40.5,-99.9,100,79,100,29.88,29.77,18,10,0,0.00
2013-4-3,81.0,78.2,77.0,81.0,24.8,-99.9,100,70,100,29.88,29.83,23,18,0,0.00
2013-4-4,79.0,76.1,72.0,79.0,12.1,-99.9,100,64,100,30.06,29.88,40,27,0,0.00
2013-4-5,79.0,69.4,66.0,79.0,-31.6,-99.9,100,40,100,30.18,30.06,47,32,0,0.00
2013-4-6,79.0,70.5,64.0,79.0,3.6,-99.9,100,61,100,30.24,30.09,36,21,0,0.00
2013-4-7,70.0,68.0,66.0,70.0,-30.0,-99.9,100,41,100,30.18,30.15,14,8,0,0.00
2013-4-8,68.0,61.2,68.0,68.0,51.2,-99.9,100,90,100,30.18,30.18,17,13,0,0.00
2013-4-9,70.0,64.3,64.0,70.0,-17.6,-99.9,100,49,100,30.24,29.97,38,22,0,0.00
2013-4-10,73.0,70.7,68.0,72.0,-23.4,-99.9,100,45,100,30.09,29.83,38,29,0,0.00
2013-4-11,75.0,74.1,72.0,75.0,-14.7,-99.9,100,49,100,29.94,29.80,29,20,0,0.00
2013-4-12,77.0,74.9,73.0,77.0,-25.0,-99.9,100,43,100,29.97,29.80,43,30,0,0.00
2013-4-13,77.0,76.6,75.0,77.0,-20.8,-99.9,100,45,100,29.97,29.80,48,40,0,0.00
2013-4-14,79.0,76.6,70.0,79.0,-6.2,-99.9,100,53,100,29.91,29.71,37,32,0,0.00
2013-4-15,79.0,77.3,75.0,79.0,32.9,-99.9,100,75,100,29.91,29.80,26,15,0,0.00
2013-4-16,81.0,79.9,77.0,81.0,8.6,-99.9,100,60,100,29.83,29.80,15,11,0,0.00
2013-4-17,82.0,81.0,79.0,82.0,28.8,-99.9,100,71,100,29.88,29.80,20,10,0,0.00
2013-4-18,84.0,82.0,81.0,84.0,1.6,-99.9,100,56,100,29.88,29.80,17,10,0,0.00
2013-4-19,86.0,81.5,81.0,86.0,29.8,-99.9,100,71,100,29.88,29.83,17,11,0,0.00
2013-4-20,86.0,82.8,81.0,86.0,65.7,-99.9,100,91,100,29.85,29.68,24,16,0,0.00
2013-4-21,88.0,82.5,79.0,84.0,46.2,-99.9,100,79,79,29.85,29.71,25,23,0,0.00
2013-4-22,82.0,80.2,73.0,82.0,47.6,-99.9,100,82,100,29.85,29.65,32,23,0,0.00
2013-4-23,82.0,78.5,75.0,81.0,65.9,-99.9,100,93,100,29.97,29.77,36,25,0,0.00
2013-4-24,77.0,74.7,73.0,77.0,-5.1,-99.9,100,54,100,30.00,29.97,15,8,0,0.00
2013-4-25,75.0,74.7,73.0,75.0,-27.4,-99.9,100,42,100,29.97,29.91,23,14,0,0.00
2013-4-26,75.0,75.0,75.0,75.0,75.0,75.0,100,100,100,29.94,29.94,17,17,0,0.00
2013-4-27,77.0,74.0,73.0,77.0,-2.8,-99.9,100,56,100,30.00,29.88,31,18,0,0.00
2013-4-28,75.0,73.6,72.0,75.0,22.7,-99.9,100,71,100,29.97,29.91,28,20,0,0.00
2013-4-29,79.0,75.2,73.0,75.0,-3.9,-99.9,100,55,100,29.97,29.83,23,17,0,0.00
2013-4-30,79.0,75.5,73.0,79.0,36.0,-99.9,100,77,100,29.91,29.88,23,11,0,0.00
2013-5-1,77.0,73.6,70.0,77.0,28.6,-99.9,100,74,100,30.03,29.88,23,19,0,0.00
2013-5-2,75.0,69.5,66.0,75.0,10.9,-99.9,100,65,100,30.12,30.03,29,25,0,0.00
2013-5-3,70.0,65.2,63.0,70.0,10.8,-99.9,100,67,100,30.12,30.00,26,15,0,0.00
2013-5-4,66.0,62.7,61.0,66.0,-14.9,-99.9,100,52,100,30.06,29.94,25,19,0,0.00
2013-5-5,64.0,61.6,59.0,64.0,41.5,-99.9,100,88,100,29.91,29.77,25,18,0,0.00
2013-5-6,72.0,72.0,72.0,72.0,72.0,72.0,100,100,100,29.91,29.91,5,5,0,0.00
2013-5-7,63.0,60.5,59.0,63.0,-0.0,-99.9,100,62,100,29.97,29.94,15,12,0,0.00
2013-5-8,61.0,60.0,59.0,61.0,23.9,-99.9,100,77,100,30.03,30.00,14,10,0,0.00
2013-5-9,64.0,59.7,57.0,64.0,59.7,57.0,100,100,100,30.03,29.97,23,17,0,0.00
2013-5-10,57.0,53.0,50.0,57.0,31.1,-99.9,100,85,100,30.09,30.03,32,29,0,0.00
2013-5-11,54.0,49.3,50.0,54.0,-0.7,-99.9,100,70,100,30.12,30.00,22,16,0,0.00
2013-5-12,61.0,55.5,52.0,61.0,5.2,-99.9,100,68,100,30.15,30.03,26,16,0,0.00
2013-5-13,57.0,54.0,50.0,57.0,-10.2,-99.9,100,57,100,30.08,30.08,23,19,0,0.00
2013-5-14,53.0,50.9,48.0,53.0,23.9,-99.9,100,82,100,30.12,30.06,20,12,0,0.00
2013-5-15,63.0,54.4,50.0,63.0,54.4,50.0,100,100,100,30.09,29.97,16,8,0,0.00
2013-5-16,59.0,52.4,50.0,57.0,35.9,-99.9,100,91,100,30.00,29.85,23,11,0,0.00
2013-5-18,54.0,50.9,48.0,54.0,-47.5,-99.9,100,34,100,30.15,29.91,23,18,0,0.00
2013-5-19,46.0,45.0,44.0,32.0,-55.9,-99.9,64,21,64,30.42,30.27,14,8,0,0.00
2013-5-20,41.0,40.2,39.0,39.0,-16.6,-99.9,93,56,93,30.42,30.39,11,10,0,0.00
2013-5-21,46.0,46.0,46.0,46.0,46.0,46.0,100,100,100,30.30,30.30,40,29,0,0.00
2013-5-22,52.0,49.4,46.0,50.0,-95.1,-99.9,98,3,98,30.06,29.97,37,29,0,0.00
2013-5-23,64.0,51.4,46.0,42.0,-71.2,-99.9,61,11,46,29.97,29.80,32,23,0,0.00
2013-5-24,50.0,50.0,50.0,-99.9,-99.9,-99.9,0,0,100,0.00,40.00,18,18,0,0.00
2013-5-25,51.0,49.5,48.0,43.0,-55.3,-99.9,79,24,59,30.00,29.94,16,7,0,0.00
2013-5-26,49.0,48.6,48.0,42.0,-11.2,-99.9,76,48,76,30.00,30.00,10,8,0,0.00
2013-5-27,50.0,49.0,48.0,41.0,-0.4,-99.9,74,49,59,29.88,29.80,7,3,0,0.00
2013-5-28,56.0,55.8,55.0,38.0,37.2,35.0,50,49,46,29.68,29.68,6,6,0,0.00
2013-5-30,48.0,48.0,48.0,-99.9,-99.9,-99.9,0,0,100,29.88,29.88,20,18,0,0.00
2013-5-31,50.0,50.0,50.0,-99.9,-99.9,-99.9,0,0,100,0.00,40.00,20,18,0,0.00
2013-6-1,50.0,50.0,50.0,-99.9,-99.9,-99.9,0,0,100,30.15,30.15,20,16,0,0.00
2013-6-2,54.0,54.0,54.0,-99.9,-99.9,-99.9,0,0,100,30.09,30.09,22,22,0,0.00
2013-6-3,47.0,45.3,43.0,38.0,-53.9,-99.9,70,23,70,30.15,30.06,8,7,0,0.00
2013-6-4,47.0,47.0,47.0,-99.9,-99.9,-99.9,0,0,100,29.97,29.97,15,15,0,0.00
2013-6-5,49.0,48.3,48.0,-99.9,-99.9,-99.9,0,0,100,30.12,30.12,22,19,0,0.00
2013-6-6,54.0,54.0,54.0,-99.9,-99.9,-99.9,0,0,100,30.12,30.12,21,21,0,0.00
2013-6-7,54.0,53.1,52.0,-99.9,-99.9,-99.9,0,0,100,0.00,40.00,24,23,0,0.00
2013-6-8,55.0,55.0,55.0,-99.9,-99.9,-99.9,0,0,100,0.00,40.00,16,16,0,0.00
2013-6-9,53.0,51.8,48.0,43.0,7.3,-99.9,68,51,68,30.06,30.06,25,18,0,0.00
2013-6-10,57.0,13.2,57.0,-99.9,-99.9,-99.9,0,0,100,30.15,30.09,25,9,0,0.00
2013-6-11,58.0,58.0,58.0,-99.9,-99.9,-99.9,0,0,100,30.00,30.00,13,13,0,0.00
2013-6-12,48.0,48.0,48.0,-99.9,-99.9,-99.9,0,0,100,30.00,30.00,21,21,0,0.00
2013-6-14,59.0,55.3,52.0,-99.9,-99.9,-99.9,0,0,100,30.15,30.15,15,13,0,0.00
2013-6-15,54.0,54.0,54.0,-99.9,-99.9,-99.9,0,0,100,30.03,30.03,5,5,0,0.00
2013-6-16,75.0,71.0,65.0,-99.9,-99.9,-99.9,0,0,100,29.97,29.91,10,6,0,0.00
2013-6-17,63.0,63.0,63.0,-99.9,-99.9,-99.9,0,0,100,29.96,29.96,10,10,0,0.00
2013-6-18,61.0,59.5,57.0,-99.9,-99.9,-99.9,0,0,100,29.91,29.91,35,22,0,0.00
2013-6-19,57.0,57.0,57.0,-99.9,-99.9,-99.9,0,0,100,0.00,40.00,23,23,0,0.00
2013-6-22,55.0,54.7,54.0,-99.9,-99.9,-99.9,0,0,100,30.03,30.00,14,10,0,0.00
2013-6-23,66.0,58.2,53.0,-99.9,-99.9,-99.9,0,0,100,29.91,29.62,8,7,0,0.00
2013-6-24,59.0,59.0,59.0,-99.9,-99.9,-99.9,0,0,100,29.91,29.91,5,5,0,0.00
2013-6-25,75.0,64.2,59.0,-99.9,-99.9,-99.9,0,0,100,29.57,29.57,14,7,0,0.00
2013-6-26,55.0,54.7,54.0,-99.9,-99.9,-99.9,0,0,100,29.74,29.74,27,25,0,0.00
2013-6-27,59.0,56.2,55.0,-99.9,-99.9,-99.9,0,0,100,30.09,29.88,27,21,0,0.00
2013-6-28,64.0,61.3,58.0,-99.9,-99.9,-99.9,0,0,100,30.12,30.12,14,10,0,0.00
2013-6-29,68.0,59.0,54.0,-99.9,-99.9,-99.9,0,0,100,30.03,30.00,28,22,0,0.00
2013-6-30,71.0,66.0,61.0,-99.9,-99.9,-99.9,0,0,100,30.00,30.00,6,4,0,0.00
2013-7-1,55.0,55.0,55.0,-99.9,-99.9,-99.9,0,0,100,29.88,29.85,20,17,0,0.00
2013-7-2,57.0,54.9,52.0,-99.9,-99.9,-99.9,0,0,100,29.96,29.88,35,27,0,0.00
2013-7-3,57.0,53.6,52.0,-99.9,-99.9,-99.9,0,0,100,30.06,30.00,27,16,0,0.00
2013-7-4,66.0,61.0,56.0,-99.9,-99.9,-99.9,0,0,100,30.06,29.91,29,26,0,0.00
2013-7-5,56.0,55.3,55.0,-99.9,-99.9,-99.9,0,0,100,30.00,29.94,27,11,0,0.00
2013-7-6,55.0,54.7,54.0,48.0,-75.3,-99.9,75,12,75,30.03,29.91,41,34,0,0.00
2013-7-7,63.0,58.2,54.0,49.0,-52.9,-99.9,73,23,73,30.00,29.94,27,19,0,0.00
2013-7-8,59.0,55.7,55.0,-99.9,-99.9,-99.9,0,0,100,29.91,29.88,16,16,0,0.00
2013-7-9,54.0,53.4,53.0,-99.9,-99.9,-99.9,0,0,100,29.97,29.94,22,18,0,0.00
2013-7-10,52.0,51.0,50.0,-99.9,-99.9,-99.9,0,0,100,29.87,29.85,20,15,0,0.00
2013-7-11,56.0,56.0,56.0,-99.9,-99.9,-99.9,0,0,100,30.00,30.00,21,21,0,0.00
2013-7-12,67.0,61.2,57.0,46.0,-86.6,-99.9,47,4,47,30.03,30.00,7,7,0,0.00
2013-7-13,56.0,55.0,54.0,49.0,-73.0,-99.9,78,14,68,30.24,29.94,28,19,0,0.00
2013-7-14,63.0,59.2,53.0,49.0,-59.3,-99.9,86,23,86,30.18,29.97,16,13,0,0.00
2013-7-15,68.0,62.4,54.0,45.0,-41.9,-99.9,70,28,70,30.21,30.12,12,10,0,0.00
2013-7-16,64.0,64.0,64.0,-99.9,-99.9,-99.9,0,0,100,30.12,30.00,22,9,0,0.00
2013-7-17,58.0,55.9,55.0,-99.9,-99.9,-99.9,0,0,100,30.08,29.97,27,16,0,0.00
2013-7-18,64.0,56.9,55.0,48.0,-85.1,-99.9,56,6,56,30.21,30.08,24,9,0,0.00
2013-7-20,59.0,56.1,55.0,54.0,-69.1,-99.9,89,18,89,30.06,30.00,30,24,0,0.00
2013-7-21,64.0,60.2,58.0,53.0,-42.6,-99.9,80,30,80,29.97,29.97,18,10,0,0.00
2013-7-23,57.0,57.0,57.0,47.0,-41.1,-99.9,69,28,69,30.00,29.97,7,7,0,0.00
2013-7-24,57.0,55.3,54.0,51.0,-79.4,-99.9,88,11,79,30.06,30.00,17,10,0,0.00
2013-7-25,68.0,60.5,55.0,53.0,-23.9,-99.9,88,42,70,30.12,30.03,30,20,0,0.00
2013-7-26,77.0,67.8,57.0,47.0,-63.2,-99.9,69,17,69,30.09,30.06,30,19,0,0.00
2013-7-27,59.0,56.6,54.0,53.0,-47.0,-99.9,80,28,78,30.18,30.06,38,24,0,0.00
2013-7-28,72.0,65.2,54.0,50.0,-70.1,-99.9,88,15,70,30.09,30.00,27,19,0,0.00
2013-7-29,71.0,63.3,57.0,53.0,-12.2,-99.9,71,41,69,30.08,30.03,10,6,0,0.00
2013-7-30,70.0,65.0,60.0,53.0,-49.1,-99.9,71,24,71,30.09,30.03,16,10,0,0.00
2013-7-31,66.0,63.8,60.0,57.0,-86.8,-99.9,73,6,73,30.12,30.06,28,21,0,0.00
2013-8-1,60.0,57.8,55.0,52.0,-9.2,-99.9,88,49,79,30.03,30.00,23,21,0,0.00
2013-8-2,59.0,57.6,55.0,-99.9,-99.9,-99.9,0,0,100,30.08,30.03,16,14,0,0.00
2013-8-3,57.0,55.3,54.0,52.0,-42.0,-99.9,88,34,88,30.15,30.09,29,18,0,0.00
2013-8-4,66.0,61.5,56.0,53.0,-90.0,-99.9,80,5,80,30.09,29.97,18,11,0,0.00
2013-8-5,75.0,59.5,55.0,52.0,-53.2,-99.9,88,27,88,30.03,29.97,10,8,0,0.00
2013-8-6,72.0,64.0,59.0,-99.9,-99.9,-99.9,0,0,100,30.05,29.94,21,12,0,0.00
2013-8-7,60.0,58.7,57.0,54.0,-40.7,-99.9,89,34,89,29.97,29.91,18,15,0,0.00
2013-8-8,61.0,59.5,59.0,58.0,-78.4,-99.9,90,12,90,30.00,29.91,22,14,0,0.00
2013-8-9,68.0,61.8,53.0,-99.9,-99.9,-99.9,0,0,100,29.91,29.87,33,17,0,0.00
2013-8-10,59.0,56.1,54.0,52.0,-31.1,-99.9,88,38,79,29.97,29.85,35,18,0,0.00
2013-8-11,68.0,62.9,54.0,-99.9,-99.9,-99.9,0,0,100,29.97,29.94,21,8,0,0.00
2013-8-12,63.0,58.3,52.0,-99.9,-99.9,-99.9,0,0,100,29.97,29.94,16,13,0,0.00
2013-8-13,66.0,62.2,59.0,-99.9,-99.9,-99.9,0,0,100,29.97,29.88,29,13,0,0.00
2013-8-14,61.0,59.9,58.0,-99.9,-99.9,-99.9,0,0,100,29.97,29.68,18,12,0,0.00
2013-8-15,68.0,51.0,57.0,56.0,-55.4,-99.9,89,25,89,29.94,29.80,29,19,0,0.00
2013-8-16,77.0,67.4,59.0,57.0,-30.9,-99.9,80,34,71,29.97,29.91,26,10,0,0.00
2013-8-17,64.0,60.4,58.0,58.0,-74.4,-99.9,90,15,90,29.97,29.85,37,16,0,0.00
2013-8-18,64.0,58.7,54.0,-99.9,-99.9,-99.9,0,0,100,29.83,29.77,24,16,0,0.00
2013-8-19,66.0,53.5,47.0,-99.9,-99.9,-99.9,0,0,100,29.85,29.77,17,14,0,0.00
2013-8-20,61.0,55.8,56.0,-99.9,-99.9,-99.9,0,0,100,29.97,29.85,31,23,0,0.00
2013-8-21,59.0,56.9,52.0,-99.9,-99.9,-99.9,0,0,100,30.06,29.77,33,25,0,0.00
2013-8-22,68.0,64.6,61.0,-99.9,-99.9,-99.9,0,0,100,29.94,29.83,29,19,0,0.00
2013-8-23,70.0,63.1,61.0,-99.9,-99.9,-99.9,0,0,100,29.91,29.83,18,12,0,0.00
2013-8-24,63.0,60.3,57.0,-99.9,-99.9,-99.9,0,0,100,29.91,29.74,23,17,0,0.00
2013-8-25,61.0,57.6,55.0,-99.9,-99.9,-99.9,0,0,100,29.77,29.68,32,17,0,0.00
2013-8-26,63.0,58.1,51.0,-99.9,-99.9,-99.9,0,0,100,29.77,29.71,33,14,0,0.00
2013-8-27,61.0,58.5,55.0,-99.9,-99.9,-99.9,0,0,100,29.80,29.77,23,13,0,0.00
2013-8-28,64.0,62.6,61.0,-99.9,-99.9,-99.9,0,0,100,29.77,29.74,29,21,0,0.00
2013-8-29,67.0,62.1,59.0,-99.9,-99.9,-99.9,0,0,100,29.85,29.65,50,20,0,0.00
2013-8-30,81.0,65.4,63.0,-99.9,-99.9,-99.9,0,0,100,30.09,29.80,22,14,0,0.00
2013-8-31,59.0,55.3,56.0,-99.9,-99.9,-99.9,0,0,100,30.03,29.94,16,11,0,0.00
2013-9-1,63.0,61.7,61.0,-99.9,-99.9,-99.9,0,0,100,29.97,29.83,18,15,0,0.00
2013-9-2,61.0,58.7,50.0,-99.9,-99.9,-99.9,0,0,100,29.91,29.88,13,7,0,0.00
2013-9-3,64.0,63.4,63.0,-99.9,-99.9,-99.9,0,0,100,29.94,29.91,24,17,0,0.00
2013-9-4,60.0,57.3,55.0,-99.9,-99.9,-99.9,0,0,100,30.06,29.88,37,24,0,0.00
2013-9-5,69.0,64.4,59.0,-99.9,-99.9,-99.9,0,0,100,30.03,29.94,14,8,0,0.00
2013-9-6,70.0,66.0,61.0,-99.9,-99.9,-99.9,0,0,100,30.00,29.97,20,15,0,0.00
2013-9-7,64.0,60.4,58.0,-99.9,-99.9,-99.9,0,0,100,30.03,30.00,21,12,0,0.00
2013-9-8,67.0,64.2,59.0,-99.9,-99.9,-99.9,0,0,100,30.06,29.97,29,13,0,0.00
2013-9-9,59.0,53.9,46.0,-99.9,-99.9,-99.9,0,0,100,30.08,30.06,14,-208,0,0.00
2013-9-10,57.0,55.2,52.0,-99.9,-99.9,-99.9,0,0,100,30.00,30.00,16,11,0,0.00
2013-9-11,73.0,63.5,55.0,-99.9,-99.9,-99.9,0,0,100,30.00,29.94,30,19,0,0.00
2013-9-12,71.0,64.5,59.0,-99.9,-99.9,-99.9,0,0,100,29.94,29.88,25,18,0,0.00
2013-9-13,67.0,60.0,56.0,54.0,-63.3,-99.9,89,21,89,29.91,29.83,20,10,0,0.00
2013-9-14,64.0,60.8,57.0,-99.9,-99.9,-99.9,0,0,100,29.88,29.83,21,11,0,0.00
2013-9-15,63.0,60.7,58.0,-99.9,-99.9,-99.9,0,0,100,29.80,29.80,17,15,0,0.00
2013-9-16,65.0,61.6,59.0,-99.9,-99.9,-99.9,0,0,100,29.85,29.83,41,26,0,0.00
2013-9-17,63.0,47.7,59.0,-99.9,-99.9,-99.9,0,0,100,29.88,29.85,46,23,0,0.00
2013-9-18,61.0,60.5,58.0,-99.9,-99.9,-99.9,0,0,100,29.80,29.80,29,28,0,0.00
2013-9-19,70.0,52.9,62.0,-99.9,-99.9,-99.9,0,0,100,29.77,29.77,18,10,0,0.00
2013-9-20,72.0,65.9,63.0,-99.9,-99.9,-99.9,0,0,100,29.83,29.80,8,6,0,0.00
2013-9-21,72.0,67.2,65.0,-99.9,-99.9,-99.9,0,0,100,29.83,29.83,10,8,0,0.00
2013-9-22,74.0,69.8,67.0,-99.9,-99.9,-99.9,0,0,100,29.83,29.80,14,10,0,0.00
2013-9-23,72.0,69.7,68.0,-99.9,-99.9,-99.9,0,0,100,29.80,29.80,14,10,0,0.00
2013-9-24,69.0,66.6,64.0,59.0,-84.8,-99.9,81,8,81,29.88,29.83,37,17,0,0.00
2013-9-25,77.0,69.6,67.0,-99.9,-99.9,-99.9,0,0,100,29.96,29.88,41,34,0,0.00